Year,Month,Day,Hour,Minute,Value (Times are PST for temperature in C)
2016,07,24,00,00,17.30
2016,07,24,00,01,17.30
2016,07,24,00,02,17.30
2016,07,24,00,03,17.30
2016,07,24,00,04,17.30
2016,07,24,00,05,17.30
2016,07,24,00,06,17.30
2016,07,24,00,07,17.30
2016,07,24,00,08,17.40
2016,07,24,00,09,17.40
2016,07,24,00,10,17.40
2016,07,24,00,11,17.50
2016,07,24,00,12,17.50
2016,07,24,00,13,17.60
2016,07,24,00,14,17.60
2016,07,24,00,15,17.70
2016,07,24,00,16,17.70
2016,07,24,00,17,17.70
2016,07,24,00,18,17.80
2016,07,24,00,19,17.80
2016,07,24,00,20,17.90
2016,07,24,00,21,18.00
2016,07,24,00,22,18.00
2016,07,24,00,23,18.10
2016,07,24,00,24,18.20
2016,07,24,00,25,18.20
2016,07,24,00,26,18.30
2016,07,24,00,27,18.40
2016,07,24,00,28,18.50
2016,07,24,00,29,18.50
2016,07,24,00,30,18.60
2016,07,24,00,31,18.60
2016,07,24,00,32,18.70
2016,07,24,00,33,18.80
2016,07,24,00,34,18.80
2016,07,24,00,35,18.90
2016,07,24,00,36,19.00
2016,07,24,00,37,19.10
2016,07,24,00,38,19.10
2016,07,24,00,39,19.20
2016,07,24,00,40,19.20
2016,07,24,00,41,19.30
2016,07,24,00,42,19.30
2016,07,24,00,43,19.30
2016,07,24,00,44,19.40
2016,07,24,00,45,19.40
2016,07,24,00,46,19.40
2016,07,24,00,47,19.40
2016,07,24,00,48,19.40
2016,07,24,00,49,19.40
2016,07,24,00,50,19.40
2016,07,24,00,51,19.40
2016,07,24,00,52,19.30
2016,07,24,00,53,19.30
2016,07,24,00,54,19.30
2016,07,24,00,55,19.30
2016,07,24,00,56,19.30
2016,07,24,00,57,19.30
2016,07,24,00,58,19.30
2016,07,24,00,59,19.30
2016,07,24,01,00,19.30
2016,07,24,01,01,19.30
2016,07,24,01,02,19.30
2016,07,24,01,03,19.30
2016,07,24,01,04,19.30
2016,07,24,01,05,19.40
2016,07,24,01,06,19.40
2016,07,24,01,07,19.40
2016,07,24,01,08,19.50
2016,07,24,01,09,19.40
2016,07,24,01,10,19.40
2016,07,24,01,11,19.40
2016,07,24,01,12,19.40
2016,07,24,01,13,19.40
2016,07,24,01,14,19.40
2016,07,24,01,15,19.40
2016,07,24,01,16,19.40
2016,07,24,01,17,19.30
2016,07,24,01,18,19.30
2016,07,24,01,19,19.30
2016,07,24,01,20,19.30
2016,07,24,01,21,19.30
2016,07,24,01,22,19.40
2016,07,24,01,23,19.30
2016,07,24,01,24,19.40
2016,07,24,01,25,19.40
2016,07,24,01,26,19.50
2016,07,24,01,27,19.50
2016,07,24,01,28,19.60
2016,07,24,01,29,19.60
2016,07,24,01,30,19.70
2016,07,24,01,31,19.70
2016,07,24,01,32,19.70
2016,07,24,01,33,19.70
2016,07,24,01,34,19.80
2016,07,24,01,35,19.80
2016,07,24,01,36,19.80
2016,07,24,01,37,19.80
2016,07,24,01,38,19.80
2016,07,24,01,39,19.80
2016,07,24,01,40,19.80
2016,07,24,01,41,19.80
2016,07,24,01,42,19.80
2016,07,24,01,43,19.80
2016,07,24,01,44,19.80
2016,07,24,01,45,19.80
2016,07,24,01,46,19.80
2016,07,24,01,47,19.90
2016,07,24,01,48,20.00
2016,07,24,01,49,20.00
2016,07,24,01,50,20.10
2016,07,24,01,51,20.10
2016,07,24,01,52,20.20
2016,07,24,01,53,20.20
2016,07,24,01,54,20.20
2016,07,24,01,55,20.20
2016,07,24,01,56,20.20
2016,07,24,01,57,20.20
2016,07,24,01,58,20.20
2016,07,24,01,59,20.30
2016,07,24,02,00,20.30
2016,07,24,02,01,20.40
2016,07,24,02,02,20.40
2016,07,24,02,03,20.40
2016,07,24,02,04,20.50
2016,07,24,02,05,20.50
2016,07,24,02,06,20.50
2016,07,24,02,07,20.50
2016,07,24,02,08,20.60
2016,07,24,02,09,20.60
2016,07,24,02,10,20.60
2016,07,24,02,11,20.60
2016,07,24,02,12,20.60
2016,07,24,02,13,20.60
2016,07,24,02,14,20.60
2016,07,24,02,15,20.70
2016,07,24,02,16,20.70
2016,07,24,02,17,20.70
2016,07,24,02,18,20.70
2016,07,24,02,19,20.80
2016,07,24,02,20,20.80
2016,07,24,02,21,20.80
2016,07,24,02,22,20.90
2016,07,24,02,23,20.90
2016,07,24,02,24,20.90
2016,07,24,02,25,20.90
2016,07,24,02,26,20.90
2016,07,24,02,27,20.90
2016,07,24,02,28,20.90
2016,07,24,02,29,20.90
2016,07,24,02,30,20.80
2016,07,24,02,31,20.80
2016,07,24,02,32,20.80
2016,07,24,02,33,20.80
2016,07,24,02,34,20.80
2016,07,24,02,35,20.90
2016,07,24,02,36,21.00
2016,07,24,02,37,21.00
2016,07,24,02,38,21.10
2016,07,24,02,39,21.10
2016,07,24,02,40,21.20
2016,07,24,02,41,21.30
2016,07,24,02,42,21.40
2016,07,24,02,43,21.40
2016,07,24,02,44,21.40
2016,07,24,02,45,21.50
2016,07,24,02,46,21.50
2016,07,24,02,47,21.60
2016,07,24,02,48,21.60
2016,07,24,02,49,21.70
2016,07,24,02,50,21.70
2016,07,24,02,51,21.70
2016,07,24,02,52,21.70
2016,07,24,02,53,21.70
2016,07,24,02,54,21.80
2016,07,24,02,55,21.80
2016,07,24,02,56,21.90
2016,07,24,02,57,21.90
2016,07,24,02,58,21.90
2016,07,24,02,59,22.00
2016,07,24,03,00,21.90
2016,07,24,03,01,21.90
2016,07,24,03,02,21.80
2016,07,24,11,03,21.80
2016,07,24,11,04,21.80
2016,07,24,11,05,21.80
2016,07,24,11,06,21.80
2016,07,24,11,07,21.80
2016,07,24,11,08,21.90
2016,07,24,11,09,22.00
2016,07,24,11,10,22.10
2016,07,24,11,11,22.10
2016,07,24,11,12,22.20
2016,07,24,11,13,22.20
2016,07,24,11,14,22.20
2016,07,24,11,15,22.30
2016,07,24,11,16,22.40
2016,07,24,11,17,22.40
2016,07,24,11,18,22.40
2016,07,24,11,19,22.40
2016,07,24,11,20,22.40
2016,07,24,11,21,22.30
2016,07,24,11,22,22.30
2016,07,24,11,23,22.30
2016,07,24,11,24,22.30
2016,07,24,11,25,22.30
2016,07,24,11,26,22.30
2016,07,24,11,27,22.30
2016,07,24,11,28,22.30
2016,07,24,11,29,22.30
2016,07,24,11,30,22.30
2016,07,24,11,31,22.40
2016,07,24,11,32,22.50
2016,07,24,11,33,22.50
2016,07,24,11,34,22.60
2016,07,24,11,35,22.70
2016,07,24,11,36,22.70
2016,07,24,11,37,22.80
2016,07,24,11,38,22.80
2016,07,24,11,39,22.80
2016,07,24,11,40,22.80
2016,07,24,11,41,22.90
2016,07,24,11,42,22.90
2016,07,24,11,43,23.00
2016,07,24,11,44,23.00
2016,07,24,11,45,22.90
2016,07,24,11,46,23.00
2016,07,24,11,47,23.00
2016,07,24,11,48,23.00
2016,07,24,11,49,22.90
2016,07,24,11,50,22.90
2016,07,24,11,51,22.90
2016,07,24,11,52,22.90
2016,07,24,11,53,22.90
2016,07,24,11,54,22.90
2016,07,24,11,55,22.90
2016,07,24,11,56,22.90
2016,07,24,11,57,22.90
2016,07,24,11,58,22.90
2016,07,24,11,59,22.80
2016,07,24,12,00,22.80
2016,07,24,12,01,22.70
2016,07,24,12,02,22.70
2016,07,24,12,03,22.60
2016,07,24,12,04,22.60
2016,07,24,12,05,22.60
2016,07,24,12,06,22.50
2016,07,24,12,07,22.50
2016,07,24,12,08,22.50
2016,07,24,12,09,22.50
2016,07,24,12,10,22.50
2016,07,24,12,11,22.50
2016,07,24,12,12,22.40
2016,07,24,12,13,22.40
2016,07,24,12,14,22.30
2016,07,24,12,15,22.30
2016,07,24,12,16,22.30
2016,07,24,12,17,22.30
2016,07,24,12,18,22.20
2016,07,24,12,19,22.20
2016,07,24,12,20,22.20
2016,07,24,12,21,22.20
2016,07,24,12,22,22.20
2016,07,24,12,23,22.20
2016,07,24,12,24,22.10
2016,07,24,12,25,22.10
2016,07,24,12,26,22.10
2016,07,24,12,27,22.10
2016,07,24,12,28,22.20
2016,07,24,12,29,22.20
2016,07,24,12,30,22.30
2016,07,24,12,31,22.40
2016,07,24,12,32,22.40
2016,07,24,12,33,22.40
2016,07,24,12,34,22.30
2016,07,24,12,35,22.20
2016,07,24,12,36,22.10
2016,07,24,12,37,22.10
2016,07,24,12,38,22.10
2016,07,24,12,39,22.10
2016,07,24,12,40,22.20
2016,07,24,12,41,22.20
2016,07,24,12,42,22.30
2016,07,24,12,43,22.40
2016,07,24,12,44,22.50
2016,07,24,12,45,22.50
2016,07,24,12,46,22.60
2016,07,24,12,47,22.60
2016,07,24,12,48,22.60
2016,07,24,12,49,22.70
2016,07,24,12,50,22.70
2016,07,24,12,51,22.80
2016,07,24,12,52,22.80
2016,07,24,12,53,22.80
2016,07,24,12,54,22.90
2016,07,24,12,55,22.90
2016,07,24,12,56,22.90
2016,07,24,12,57,22.90
2016,07,24,12,58,22.90
2016,07,24,12,59,22.90
2016,07,24,13,00,23.00
2016,07,24,13,01,23.00
2016,07,24,13,02,23.00
2016,07,24,13,03,23.00
2016,07,24,13,04,23.10
2016,07,24,13,05,23.20
2016,07,24,13,06,23.30
2016,07,24,13,07,23.40
2016,07,24,13,08,23.40
2016,07,24,13,09,23.40
2016,07,24,13,10,23.40
2016,07,24,13,11,23.40
2016,07,24,13,12,23.40
2016,07,24,13,13,23.40
2016,07,24,13,14,23.40
2016,07,24,13,15,23.40
2016,07,24,13,16,23.40
2016,07,24,13,17,23.40
2016,07,24,13,18,23.50
2016,07,24,13,19,23.50
2016,07,24,13,20,23.60
2016,07,24,13,21,23.60
2016,07,24,13,22,23.70
2016,07,24,13,23,23.70
2016,07,24,13,24,23.80
2016,07,24,13,25,23.80
2016,07,24,13,26,23.80
2016,07,24,13,27,23.80
2016,07,24,13,28,23.70
2016,07,24,13,29,23.70
2016,07,24,13,30,23.70
2016,07,24,13,31,23.80
2016,07,24,13,32,23.80
2016,07,24,13,33,23.90
2016,07,24,13,34,24.00
2016,07,24,13,35,24.00
2016,07,24,13,36,24.10
2016,07,24,13,37,24.10
2016,07,24,13,38,24.00
2016,07,24,13,39,24.00
2016,07,24,13,40,24.00
2016,07,24,13,41,23.90
2016,07,24,13,42,23.90
2016,07,24,13,43,23.90
2016,07,24,13,44,23.90
2016,07,24,13,45,23.80
2016,07,24,13,46,23.90
2016,07,24,13,47,23.90
2016,07,24,13,48,23.80
2016,07,24,13,49,23.80
2016,07,24,13,50,23.80
2016,07,24,13,51,23.80
2016,07,24,13,52,23.90
2016,07,24,13,53,23.90
2016,07,24,13,54,24.00
2016,07,24,13,55,24.00
2016,07,24,13,56,24.10
2016,07,24,13,57,24.10
2016,07,24,13,58,24.10
2016,07,24,13,59,24.10
2016,07,24,14,00,24.10
2016,07,24,14,01,24.10
2016,07,24,14,02,24.20
2016,07,24,14,03,24.30
2016,07,24,14,04,24.40
2016,07,24,14,05,24.50
2016,07,24,14,06,24.60
2016,07,24,14,07,24.70
2016,07,24,14,08,24.90
2016,07,24,14,09,25.00
2016,07,24,14,10,25.10
2016,07,24,14,11,25.20
2016,07,24,14,12,25.20
2016,07,24,14,13,25.20
2016,07,24,14,14,25.30
2016,07,24,14,15,25.40
2016,07,24,14,16,25.50
2016,07,24,14,17,25.60
2016,07,24,14,18,25.70
2016,07,24,14,19,25.80
2016,07,24,14,20,25.90
2016,07,24,14,21,25.90
2016,07,24,14,22,25.90
2016,07,24,14,23,25.90
2016,07,24,14,24,25.90
2016,07,24,14,25,25.90
2016,07,24,14,26,26.00
2016,07,24,14,27,26.10
2016,07,24,14,28,26.10
2016,07,24,14,29,26.00
2016,07,24,14,30,25.90
2016,07,24,14,31,26.00
2016,07,24,14,32,25.90
2016,07,24,14,33,25.90
2016,07,24,14,34,25.90
2016,07,24,14,35,25.80
2016,07,24,14,36,25.70
2016,07,24,14,37,25.60
2016,07,24,14,38,25.60
2016,07,24,14,39,25.50
2016,07,24,14,40,25.50
2016,07,24,14,41,25.40
2016,07,24,14,42,25.30
2016,07,24,14,43,25.40
2016,07,24,14,44,25.30
2016,07,24,14,45,25.30
2016,07,24,14,46,25.20
2016,07,24,14,47,25.20
2016,07,24,14,48,25.10
2016,07,24,14,49,25.00
2016,07,24,14,50,25.00
2016,07,24,14,51,24.90
2016,07,24,14,52,24.90
2016,07,24,14,53,24.90
2016,07,24,14,54,24.90
2016,07,24,14,55,24.90
2016,07,24,14,56,25.00
2016,07,24,14,57,25.00
2016,07,24,14,58,25.10
2016,07,24,14,59,25.10
2016,07,24,15,00,25.10
2016,07,24,15,01,25.20
2016,07,24,15,02,25.20
2016,07,24,15,03,25.20
2016,07,24,15,04,25.30
2016,07,24,15,05,25.30
2016,07,24,15,06,25.30
2016,07,24,15,07,25.30
2016,07,24,15,08,25.30
2016,07,24,15,09,25.30
2016,07,24,15,10,25.30
2016,07,24,15,11,25.30
2016,07,24,15,12,25.30
2016,07,24,15,13,25.30
2016,07,24,15,14,25.30
2016,07,24,15,15,25.30
2016,07,24,15,16,25.30
2016,07,24,15,17,25.30
2016,07,24,15,18,25.30
2016,07,24,15,19,25.40
2016,07,24,15,20,25.40
2016,07,24,15,21,25.40
2016,07,24,15,22,25.40
2016,07,24,15,23,25.40
2016,07,24,15,24,25.40
2016,07,24,15,25,25.40
2016,07,24,15,26,25.40
2016,07,24,15,27,25.40
2016,07,24,15,28,25.40
2016,07,24,15,29,25.40
2016,07,24,15,30,25.40
2016,07,24,15,31,25.40
2016,07,24,15,32,25.50
2016,07,24,15,33,25.40
2016,07,24,15,34,25.40
2016,07,24,15,35,25.40
2016,07,24,15,36,25.40
2016,07,24,15,37,25.40
2016,07,24,15,38,25.40
2016,07,24,15,39,25.30
2016,07,24,15,40,25.30
2016,07,24,15,41,25.30
2016,07,24,15,42,25.30
2016,07,24,15,43,25.20
2016,07,24,15,44,25.10
2016,07,24,15,45,25.00
2016,07,24,15,46,24.90
2016,07,24,15,47,24.90
2016,07,24,15,48,24.80
2016,07,24,15,49,24.90
2016,07,24,15,50,24.80
2016,07,24,15,51,24.70
2016,07,24,15,52,24.70
2016,07,24,15,53,24.80
2016,07,24,15,54,24.80
2016,07,24,15,55,24.90
2016,07,24,15,56,25.00
2016,07,24,15,57,25.10
2016,07,24,15,58,25.20
2016,07,24,15,59,25.30
2016,07,24,16,00,25.50
2016,07,24,16,01,25.60
2016,07,24,16,02,25.70
2016,07,24,16,03,25.80
2016,07,24,16,04,25.90
2016,07,24,16,05,25.90
2016,07,24,16,06,25.90
2016,07,24,16,07,25.90
2016,07,24,16,08,25.90
2016,07,24,16,09,25.90
2016,07,24,16,10,25.80
2016,07,24,16,11,25.80
2016,07,24,16,12,25.80
2016,07,24,16,13,25.90
2016,07,24,16,14,25.90
2016,07,24,16,15,25.90
2016,07,24,16,16,25.90
2016,07,24,16,17,25.90
2016,07,24,16,18,25.80
2016,07,24,16,19,25.80
2016,07,24,16,20,25.80
2016,07,24,16,21,25.80
2016,07,24,16,22,25.80
2016,07,24,16,23,25.80
2016,07,24,16,24,25.80
2016,07,24,16,25,25.80
2016,07,24,16,26,25.80
2016,07,24,16,27,25.80
2016,07,24,16,28,25.80
2016,07,24,16,29,25.70
2016,07,24,16,30,25.70
2016,07,24,16,31,25.70
2016,07,24,16,32,25.70
2016,07,24,16,33,25.70
2016,07,24,16,34,25.70
2016,07,24,16,35,25.70
2016,07,24,16,36,25.70
2016,07,24,16,37,25.60
2016,07,24,16,38,25.60
2016,07,24,16,39,25.60
2016,07,24,16,40,25.60
2016,07,24,16,41,25.60
2016,07,24,16,42,25.60
2016,07,24,16,43,25.60
2016,07,24,16,44,25.60
2016,07,24,16,45,25.60
2016,07,24,16,46,25.60
2016,07,24,16,47,25.60
2016,07,24,16,48,25.60
2016,07,24,16,49,25.50
2016,07,24,16,50,25.50
2016,07,24,16,51,25.50
2016,07,24,16,52,25.60
2016,07,24,16,53,25.50
2016,07,24,16,54,25.50
2016,07,24,16,55,25.40
2016,07,24,16,56,25.40
2016,07,24,16,57,25.40
2016,07,24,16,58,25.40
2016,07,24,16,59,25.40
2016,07,24,17,00,25.40
2016,07,24,17,01,25.40
2016,07,24,17,02,25.40
2016,07,24,17,03,25.40
2016,07,24,17,04,25.50
2016,07,24,17,05,25.50
2016,07,24,17,06,25.40
2016,07,24,17,07,25.40
2016,07,24,17,08,25.50
2016,07,24,17,09,25.50
2016,07,24,17,10,25.50
2016,07,24,17,11,25.50
2016,07,24,17,12,25.50
2016,07,24,17,13,25.50
2016,07,24,17,14,25.50
2016,07,24,17,15,25.50
2016,07,24,17,16,25.50
2016,07,24,17,17,25.50
2016,07,24,17,18,25.50
2016,07,24,17,19,25.50
2016,07,24,17,20,25.40
2016,07,24,17,21,25.40
2016,07,24,17,22,25.30
2016,07,24,17,23,25.30
2016,07,24,17,24,25.30
2016,07,24,17,25,25.30
2016,07,24,17,26,25.20
2016,07,24,17,27,25.20
2016,07,24,17,28,25.20
2016,07,24,17,29,25.20
2016,07,24,17,30,25.20
2016,07,24,17,31,25.20
2016,07,24,17,32,25.20
2016,07,24,17,33,25.20
2016,07,24,17,34,25.20
2016,07,24,17,35,25.20
2016,07,24,17,36,25.10
2016,07,24,17,37,25.10
2016,07,24,17,38,25.10
2016,07,24,17,39,25.10
2016,07,24,17,40,25.10
2016,07,24,17,41,25.10
2016,07,24,17,42,25.10
2016,07,24,17,43,25.00
2016,07,24,17,44,25.00
2016,07,24,17,45,25.00
2016,07,24,17,46,25.00
2016,07,24,17,47,25.00
2016,07,24,17,48,25.00
2016,07,24,17,49,25.00
2016,07,24,17,50,25.00
2016,07,24,17,51,25.00
2016,07,24,17,52,25.00
2016,07,24,17,53,25.00
2016,07,24,17,54,25.00
2016,07,24,17,55,25.00
2016,07,24,17,56,24.90
2016,07,24,17,57,24.90
2016,07,24,17,58,24.90
2016,07,24,17,59,24.90
2016,07,24,18,00,24.90
2016,07,24,18,01,24.80
2016,07,24,18,02,24.80
2016,07,24,18,03,24.90
2016,07,24,18,04,24.90
2016,07,24,18,05,24.90
2016,07,24,18,06,24.90
2016,07,24,18,07,25.00
2016,07,24,18,08,25.00
2016,07,24,18,09,25.00
2016,07,24,18,10,25.10
2016,07,24,18,11,25.20
2016,07,24,18,12,25.20
2016,07,24,18,13,25.30
2016,07,24,18,14,25.30
2016,07,24,18,15,25.30
2016,07,24,18,16,25.30
2016,07,24,18,17,25.40
2016,07,24,18,18,25.50
2016,07,24,18,19,25.50
2016,07,24,18,20,25.60
2016,07,24,18,21,25.60
2016,07,24,18,22,25.70
2016,07,24,18,23,25.70
2016,07,24,18,24,25.70
2016,07,24,18,25,25.70
2016,07,24,18,26,25.70
2016,07,24,18,27,25.70
2016,07,24,18,28,25.70
2016,07,24,18,29,25.70
2016,07,24,18,30,25.70
2016,07,24,18,31,25.70
2016,07,24,18,32,25.60
2016,07,24,18,33,25.60
2016,07,24,18,34,25.60
2016,07,24,18,35,25.60
2016,07,24,18,36,25.50
2016,07,24,18,37,25.50
2016,07,24,18,38,25.50
2016,07,24,18,39,25.50
2016,07,24,18,40,25.40
2016,07,24,18,41,25.40
2016,07,24,18,42,25.40
2016,07,24,18,43,25.40
2016,07,24,18,44,25.40
2016,07,24,18,45,25.40
2016,07,24,18,46,25.40
2016,07,24,18,47,25.40
2016,07,24,18,48,25.40
2016,07,24,18,49,25.40
2016,07,24,18,50,25.40
2016,07,24,18,51,25.40
2016,07,24,18,52,25.30
2016,07,24,18,53,25.30
2016,07,24,18,54,25.30
2016,07,24,18,55,25.30
2016,07,24,18,56,25.30
2016,07,24,18,57,25.30
2016,07,24,18,58,25.30
2016,07,24,18,59,25.30
2016,07,24,19,00,25.30
2016,07,24,19,01,25.30
2016,07,24,19,02,25.30
2016,07,24,19,03,25.30
2016,07,24,19,04,25.40
2016,07,24,19,05,25.40
2016,07,24,19,06,25.40
2016,07,24,19,07,25.40
2016,07,24,19,08,25.40
2016,07,24,19,09,25.40
2016,07,24,19,10,25.50
2016,07,24,19,11,25.50
2016,07,24,19,12,25.40
2016,07,24,19,13,25.50
2016,07,24,19,14,25.40
2016,07,24,19,15,25.40
2016,07,24,19,16,25.40
2016,07,24,19,17,25.40
2016,07,24,19,18,25.40
2016,07,24,19,19,25.40
2016,07,24,19,20,25.40
2016,07,24,19,21,25.40
2016,07,24,19,22,25.40
2016,07,24,19,23,25.40
2016,07,24,19,24,25.30
2016,07,24,19,25,25.30
2016,07,24,19,26,25.30
2016,07,24,19,27,25.30
2016,07,24,19,28,25.30
2016,07,24,19,29,25.30
2016,07,24,19,30,25.30
2016,07,24,19,31,25.30
2016,07,24,19,32,25.20
2016,07,24,19,33,25.20
2016,07,24,19,34,25.20
2016,07,24,19,35,25.20
2016,07,24,19,36,25.10
2016,07,24,19,37,25.10
2016,07,24,19,38,25.10
2016,07,24,19,39,25.00
2016,07,24,19,40,25.00
2016,07,24,19,41,25.00
2016,07,24,19,42,24.90
2016,07,24,19,43,24.90
2016,07,24,19,44,24.90
2016,07,24,19,45,24.80
2016,07,24,19,46,24.80
2016,07,24,19,47,24.80
2016,07,24,19,48,24.70
2016,07,24,19,49,24.70
2016,07,24,19,50,24.70
2016,07,24,19,51,24.70
2016,07,24,19,52,24.60
2016,07,24,19,53,24.60
2016,07,24,19,54,24.60
2016,07,24,19,55,24.60
2016,07,24,19,56,24.50
2016,07,24,19,57,24.40
2016,07,24,19,58,24.40
2016,07,24,19,59,24.30
2016,07,24,20,00,24.30
2016,07,24,20,01,24.20
2016,07,24,20,02,24.10
2016,07,24,20,03,24.00
2016,07,24,20,04,23.90
2016,07,24,20,05,23.90
2016,07,24,20,06,23.80
2016,07,24,20,07,23.70
2016,07,24,20,08,23.70
2016,07,24,20,09,23.60
2016,07,24,20,10,23.50
2016,07,24,20,11,23.50
2016,07,24,20,12,23.40
2016,07,24,20,13,23.30
2016,07,24,20,14,23.30
2016,07,24,20,15,23.20
2016,07,24,20,16,23.10
2016,07,24,20,17,23.10
2016,07,24,20,18,23.00
2016,07,24,20,19,22.90
2016,07,24,20,20,22.80
2016,07,24,20,21,22.80
2016,07,24,20,22,22.70
2016,07,24,20,23,22.70
2016,07,24,20,24,22.60
2016,07,24,20,25,22.60
2016,07,24,20,26,22.50
2016,07,24,20,27,22.50
2016,07,24,20,28,22.40
2016,07,24,20,29,22.40
2016,07,24,20,30,22.30
2016,07,24,20,31,22.30
2016,07,24,20,32,22.20
2016,07,24,20,33,22.20
2016,07,24,20,34,22.20
2016,07,24,20,35,22.10
2016,07,24,20,36,22.10
2016,07,24,20,37,22.10
2016,07,24,20,38,22.10
2016,07,24,20,39,22.00
2016,07,24,20,40,22.00
2016,07,24,20,41,22.00
2016,07,24,20,42,21.90
2016,07,24,20,43,21.90
2016,07,24,20,44,21.90
2016,07,24,20,45,21.80
2016,07,24,20,46,21.80
2016,07,24,20,47,21.80
2016,07,24,20,48,21.80
2016,07,24,20,49,21.70
2016,07,24,20,50,21.70
2016,07,24,20,51,21.70
2016,07,24,20,52,21.70
2016,07,24,20,53,21.70
2016,07,24,20,54,21.70
2016,07,24,20,55,21.70
2016,07,24,20,56,21.70
2016,07,24,20,57,21.70
2016,07,24,20,58,21.70
2016,07,24,20,59,21.60
2016,07,24,21,00,21.60
2016,07,24,21,01,21.60
2016,07,24,21,02,21.60
2016,07,24,21,03,21.60
2016,07,24,21,04,21.60
2016,07,24,21,05,21.50
2016,07,24,21,06,21.50
2016,07,24,21,07,21.50
2016,07,24,21,08,21.50
2016,07,24,21,09,21.50
2016,07,24,21,10,21.50
2016,07,24,21,11,21.50
2016,07,24,21,12,21.40
2016,07,24,21,13,21.40
2016,07,24,21,14,21.40
2016,07,24,21,15,21.40
2016,07,24,21,16,21.50
2016,07,24,21,17,21.50
2016,07,24,21,18,21.50
2016,07,24,21,19,21.50
2016,07,24,21,20,21.50
2016,07,24,21,21,21.50
2016,07,24,21,22,21.50
2016,07,24,21,23,21.50
2016,07,24,21,24,21.50
2016,07,24,21,25,21.60
2016,07,24,21,26,21.60
2016,07,24,21,27,21.60
2016,07,24,21,28,21.60
2016,07,24,21,29,21.60
2016,07,24,21,30,21.60
2016,07,24,21,31,21.60
2016,07,24,21,32,21.60
2016,07,24,21,33,21.60
2016,07,24,21,34,21.60
2016,07,24,21,35,21.60
2016,07,24,21,36,21.60
2016,07,24,21,37,21.60
2016,07,24,21,38,21.60
2016,07,24,21,39,21.60
2016,07,24,21,40,21.60
2016,07,24,21,41,21.60
2016,07,24,21,42,21.60
2016,07,24,21,43,21.60
2016,07,24,21,44,21.60
2016,07,24,21,45,21.60
2016,07,24,21,46,21.60
2016,07,24,21,47,21.60
2016,07,24,21,48,21.60
2016,07,24,21,49,21.60
2016,07,24,21,50,21.60
2016,07,24,21,51,21.60
2016,07,24,21,52,21.60
2016,07,24,21,53,21.60
2016,07,24,21,54,21.60
2016,07,24,21,55,21.60
2016,07,24,21,56,21.60
2016,07,24,21,57,21.60
2016,07,24,21,58,21.60
2016,07,24,21,59,21.60
2016,07,24,22,00,21.60
2016,07,24,22,01,21.60
2016,07,24,22,02,21.60
2016,07,24,22,03,21.60
2016,07,24,22,04,21.60
2016,07,24,22,05,21.60
2016,07,24,22,06,21.60
2016,07,24,22,07,21.60
2016,07,24,22,08,21.60
2016,07,24,22,09,21.60
2016,07,24,22,10,21.60
2016,07,24,22,11,21.60
2016,07,24,22,12,21.60
2016,07,24,22,13,21.60
2016,07,24,22,14,21.60
2016,07,24,22,15,21.60
2016,07,24,22,16,21.60
2016,07,24,22,17,21.60
2016,07,24,22,18,21.60
2016,07,24,22,19,21.60
2016,07,24,22,20,21.60
2016,07,24,22,21,21.60
2016,07,24,22,22,21.60
2016,07,24,22,23,21.60
2016,07,24,22,24,21.60
2016,07,24,22,25,21.60
2016,07,24,22,26,21.60
2016,07,24,22,27,21.60
2016,07,24,22,28,21.60
2016,07,24,22,29,21.60
2016,07,24,22,30,21.60
2016,07,24,22,31,21.60
2016,07,24,22,32,21.60
2016,07,24,22,33,21.60
2016,07,24,22,34,21.60
2016,07,24,22,35,21.60
2016,07,24,22,36,21.60
2016,07,24,22,37,21.60
2016,07,24,22,38,21.60
2016,07,24,22,39,21.60
2016,07,24,22,40,21.60
2016,07,24,22,41,21.60
2016,07,24,22,42,21.60
2016,07,24,22,43,21.60
2016,07,24,22,44,21.60
2016,07,24,22,45,21.60
2016,07,24,22,46,21.60
2016,07,24,22,47,21.50
2016,07,24,22,48,21.50
2016,07,24,22,49,21.50
2016,07,24,22,50,21.50
2016,07,24,22,51,21.50
2016,07,24,22,52,21.50
2016,07,24,22,53,21.50
2016,07,24,22,54,21.50
2016,07,24,22,55,21.50
2016,07,24,22,56,21.50
2016,07,24,22,57,21.40
2016,07,24,22,58,21.40
2016,07,24,22,59,21.40
2016,07,24,23,00,21.40
2016,07,24,23,01,21.40
2016,07,24,23,02,21.30
2016,07,24,23,03,21.30
2016,07,24,23,04,21.30
2016,07,24,23,05,21.30
2016,07,24,23,06,21.30
2016,07,24,23,07,21.20
2016,07,24,23,08,21.20
2016,07,24,23,09,21.20
2016,07,24,23,10,21.20
2016,07,24,23,11,21.20
2016,07,24,23,12,21.20
2016,07,24,23,13,21.10
2016,07,24,23,14,21.10
2016,07,24,23,15,21.10
2016,07,24,23,16,21.10
2016,07,24,23,17,21.10
2016,07,24,23,18,21.10
2016,07,24,23,19,21.00
2016,07,24,23,20,21.00
2016,07,24,23,21,21.00
2016,07,24,23,22,20.90
2016,07,24,23,23,20.90
2016,07,24,23,24,20.90
2016,07,24,23,25,20.90
2016,07,24,23,26,20.90
2016,07,24,23,27,20.80
2016,07,24,23,28,20.80
2016,07,24,23,29,20.80
2016,07,24,23,30,20.80
2016,07,24,23,31,20.80
2016,07,24,23,32,20.70
2016,07,24,23,33,20.70
2016,07,24,23,34,20.70
2016,07,24,23,35,20.70
2016,07,24,23,36,20.70
2016,07,24,23,37,20.60
2016,07,24,23,38,20.60
2016,07,24,23,39,20.60
2016,07,24,23,40,20.60
2016,07,24,23,41,20.60
2016,07,24,23,42,20.60
2016,07,24,23,43,20.60
2016,07,24,23,44,20.60
2016,07,24,23,45,20.60
2016,07,24,23,46,20.50
2016,07,24,23,47,20.50
2016,07,24,23,48,20.50
2016,07,24,23,49,20.50
2016,07,24,23,50,20.40
2016,07,24,23,51,20.40
2016,07,24,23,52,20.40
2016,07,24,23,53,20.40
2016,07,24,23,54,20.40
2016,07,24,23,55,20.40
2016,07,24,23,56,20.40
2016,07,24,23,57,20.40
2016,07,24,23,58,20.40
2016,07,24,23,59,20.40
